Tracking 18844 objects as of 21-Nov-2017
HD Live streaming from Space Station
objects crossing your sky now

COSMOS 836

Track COSMOS 836 now!
10-day predictions
COSMOS 836 is classified as:


NORAD ID: 8923
Int'l Code: 1976-061A
Perigee: 775.0 km
Apogee: 802.2 km
Inclination: 74.1 °
Period: 100.5 minutes
Semi major axis: 7159 km
RCS: 1.916 m2 (large)
Launch date: June 29, 1976
Source: Commonwealth of Independent States (former USSR) (CIS)
Launch site: PLESETSK MISSILE AND SPACE COMPLEX (PKMTR)
aabbcc
Your satellite tracking list
Your tracking list is empty




NASA's NSSDC Master Catalog

Two Line Element Set (TLE):
1  8923U 76061A   17324.93742938 +.00000013 +00000-0 +14334-4 0  9997
2  8923 074.0529 291.2154 0019005 226.5408 133.4163 14.33082190161759
Source of the keplerian elements: AFSPC